TimeEST,TemperatureF,Dew PointF,Humidity,Sea Level PressureIn,VisibilityMPH,Wind Direction,Wind SpeedMPH,Gust SpeedMPH,PrecipitationIn,Events,Conditions,WindDirDegrees,DateUTC
12:11 AM,41.0,40.6,99,30.13,3.0,Calm,Calm,-,N/A,,Overcast,0,2012-11-10 05:11:00
12:31 AM,41.0,41.0,100,30.14,3.0,Calm,Calm,-,N/A,,Overcast,0,2012-11-10 05:31:00
12:51 AM,41.0,41.0,100,30.13,3.0,East,3.5,-,N/A,,Overcast,80,2012-11-10 05:51:00
1:11 AM,41.0,41.0,100,30.13,3.0,Calm,Calm,-,N/A,,Overcast,0,2012-11-10 06:11:00
1:31 AM,41.2,41.0,99,30.12,3.0,East,4.6,-,N/A,,Overcast,100,2012-11-10 06:31:00
1:52 AM,41.4,41.2,99,30.13,3.0,East,4.6,-,N/A,,Overcast,80,2012-11-10 06:52:00
2:12 AM,41.4,41.2,99,30.13,4.0,East,5.8,-,N/A,,Overcast,90,2012-11-10 07:12:00
2:32 AM,41.4,41.0,99,30.13,4.0,East,4.6,-,N/A,,Overcast,80,2012-11-10 07:32:00
3:12 AM,41.5,41.0,98,30.13,4.0,East,6.9,-,N/A,,Overcast,90,2012-11-10 08:12:00
3:32 AM,41.0,40.3,97,30.13,3.0,East,8.1,-,N/A,,Overcast,90,2012-11-10 08:32:00
3:52 AM,41.0,40.3,97,30.13,3.0,East,5.8,-,N/A,,Overcast,90,2012-11-10 08:52:00
4:12 AM,41.0,40.1,97,30.14,3.0,East,4.6,-,N/A,,Overcast,90,2012-11-10 09:12:00
4:33 AM,41.0,40.1,97,30.13,4.0,East,5.8,-,N/A,,Overcast,80,2012-11-10 09:33:00
4:53 AM,41.0,40.1,97,30.13,3.0,East,8.1,-,N/A,,Overcast,80,2012-11-10 09:53:00
5:13 AM,41.0,40.1,97,30.13,3.0,East,9.2,-,N/A,,Overcast,90,2012-11-10 10:13:00
5:33 AM,41.0,40.1,97,30.13,3.0,East,10.4,-,N/A,,Overcast,80,2012-11-10 10:33:00
5:53 AM,41.0,40.1,97,30.12,3.0,East,11.5,-,N/A,,Overcast,90,2012-11-10 10:53:00
6:13 AM,41.0,40.1,97,30.12,3.0,East,9.2,-,N/A,,Overcast,90,2012-11-10 11:13:00
6:33 AM,41.0,40.1,97,30.13,3.0,East,9.2,-,N/A,,Overcast,100,2012-11-10 11:33:00
6:53 AM,41.2,40.5,97,30.12,3.0,East,9.2,-,N/A,,Overcast,90,2012-11-10 11:53:00
7:14 AM,41.2,40.3,97,30.13,3.0,East,10.4,-,N/A,,Overcast,90,2012-11-10 12:14:00
7:34 AM,41.5,41.0,98,30.12,3.0,East,10.4,-,N/A,,Overcast,90,2012-11-10 12:34:00
7:54 AM,41.5,41.0,98,30.09,1.8,East,11.5,20.7,N/A,Rain,Rain,90,2012-11-10 12:54:00
8:14 AM,41.5,41.2,99,30.11,1.5,ESE,10.4,-,N/A,Rain,Rain,110,2012-11-10 13:14:00
8:34 AM,42.1,41.9,99,30.10,1.2,East,11.5,-,N/A,Rain,Light Rain,90,2012-11-10 13:34:00
8:54 AM,42.4,42.3,99,30.11,1.5,East,11.5,-,N/A,Rain,Light Rain,100,2012-11-10 13:54:00
9:14 AM,43.3,42.8,98,30.12,2.0,East,11.5,-,N/A,,Overcast,100,2012-11-10 14:14:00
9:34 AM,43.3,42.8,98,30.11,1.8,East,11.5,-,N/A,Rain,Light Rain,100,2012-11-10 14:34:00
9:55 AM,43.3,42.8,98,30.11,2.0,ESE,11.5,-,N/A,,Overcast,110,2012-11-10 14:55:00
10:15 AM,43.3,42.4,97,30.12,2.0,East,11.5,-,N/A,,Overcast,90,2012-11-10 15:15:00
10:35 AM,44.2,43.5,97,30.11,2.0,East,9.2,-,N/A,,Overcast,100,2012-11-10 15:35:00
10:55 AM,44.2,43.3,97,30.11,2.0,East,11.5,-,N/A,,Overcast,100,2012-11-10 15:55:00
11:15 AM,45.9,44.8,96,30.11,2.0,ESE,9.2,-,N/A,,Light Drizzle,110,2012-11-10 16:15:00
11:35 AM,45.9,44.6,95,30.10,2.5,ESE,10.4,-,N/A,,Overcast,110,2012-11-10 16:35:00
11:55 AM,45.5,44.2,95,30.07,2.5,ESE,12.7,-,N/A,,Overcast,110,2012-11-10 16:55:00
12:15 PM,45.9,44.6,95,30.07,2.5,ESE,10.4,17.3,N/A,,Overcast,110,2012-11-10 17:15:00
12:36 PM,45.9,44.4,95,30.05,2.5,ESE,11.5,-,N/A,,Overcast,110,2012-11-10 17:36:00
12:56 PM,45.9,44.8,96,30.05,2.5,East,6.9,-,N/A,Rain,Light Rain,100,2012-11-10 17:56:00
1:11 PM,45.9,45.0,97,30.04,2.0,ESE,10.4,-,N/A,Rain,Light Rain,110,2012-11-10 18:11:00
1:31 PM,45.9,45.5,99,30.01,1.8,East,10.4,-,N/A,,Light Drizzle,100,2012-11-10 18:31:00
1:51 PM,45.9,45.1,97,30.01,2.0,ESE,9.2,-,N/A,,Overcast,110,2012-11-10 18:51:00
2:11 PM,46.8,46.0,97,30.01,2.0,ESE,10.4,-,N/A,,Overcast,110,2012-11-10 19:11:00
2:31 PM,47.3,46.4,97,30.01,2.0,ESE,11.5,-,N/A,,Overcast,120,2012-11-10 19:31:00
2:51 PM,46.6,45.7,97,29.99,1.8,ESE,10.4,-,N/A,,Overcast,120,2012-11-10 19:51:00
3:11 PM,48.4,47.5,97,29.99,1.8,ESE,12.7,-,N/A,,Overcast,110,2012-11-10 20:11:00
3:31 PM,48.4,47.3,96,29.98,2.0,ESE,12.7,16.1,N/A,,Overcast,110,2012-11-10 20:31:00
3:51 PM,48.4,46.9,95,29.98,2.0,ESE,10.4,-,N/A,,Overcast,110,2012-11-10 20:51:00
4:12 PM,48.4,47.3,96,29.97,2.0,ESE,10.4,16.1,N/A,,Overcast,110,2012-11-10 21:12:00
4:32 PM,48.4,46.8,94,29.97,2.0,ESE,9.2,17.3,N/A,,Overcast,120,2012-11-10 21:32:00
4:52 PM,48.4,46.8,94,29.97,2.0,ESE,10.4,17.3,N/A,,Overcast,120,2012-11-10 21:52:00
5:12 PM,48.4,47.3,96,29.96,3.0,ESE,8.1,-,N/A,,Overcast,120,2012-11-10 22:12:00
5:52 PM,48.4,47.5,97,29.96,3.0,ESE,8.1,-,N/A,,Light Drizzle,120,2012-11-10 22:52:00
6:12 PM,48.4,47.7,97,29.95,2.5,ESE,10.4,-,N/A,Rain,Light Rain,120,2012-11-10 23:12:00
6:32 PM,48.4,47.7,97,29.95,3.0,ESE,8.1,-,N/A,,Mostly Cloudy,110,2012-11-10 23:32:00
6:52 PM,48.4,47.7,97,29.95,3.0,ESE,6.9,-,N/A,,Scattered Clouds,120,2012-11-10 23:52:00
7:12 PM,48.4,47.8,98,29.94,3.0,SE,6.9,-,N/A,,Mist,130,2012-11-11 00:12:00
7:32 PM,47.7,47.1,98,29.96,3.0,SE,4.6,-,N/A,,Mist,130,2012-11-11 00:32:00
7:53 PM,48.4,48.0,99,29.95,3.0,SE,6.9,-,N/A,,Mist,130,2012-11-11 00:53:00
8:13 PM,45.9,45.7,99,29.95,3.0,SE,5.8,-,N/A,,Clear,130,2012-11-11 01:13:00
8:33 PM,45.9,45.9,100,29.95,3.0,SE,3.5,-,N/A,,Clear,140,2012-11-11 01:33:00
8:53 PM,45.7,45.5,99,29.94,2.5,Calm,Calm,-,N/A,,Clear,0,2012-11-11 01:53:00
9:13 PM,43.5,43.5,100,29.94,2.5,Calm,Calm,-,N/A,,Clear,0,2012-11-11 02:13:00
9:33 PM,41.9,41.9,100,29.92,2.0,ESE,3.5,-,N/A,,Clear,120,2012-11-11 02:33:00
9:53 PM,45.5,45.5,100,29.92,3.0,SE,3.5,-,N/A,,Clear,130,2012-11-11 02:53:00
10:33 PM,46.6,46.6,100,29.91,4.0,SSE,4.6,-,N/A,,Clear,150,2012-11-11 03:33:00
10:53 PM,45.7,45.7,100,29.91,4.0,SE,5.8,-,N/A,,Clear,140,2012-11-11 03:53:00
11:13 PM,46.4,46.4,100,29.89,5.0,SSE,4.6,-,N/A,,Clear,160,2012-11-11 04:13:00
11:33 PM,48.4,48.4,100,29.89,7.0,SSE,5.8,-,N/A,,Clear,150,2012-11-11 04:33:00
11:53 PM,53.4,50.4,89,29.90,10.0,South,8.1,17.3,N/A,,Mostly Cloudy,180,2012-11-11 04:53:00